This is the latest recevied weather packets stored in our database for station/object K4CRS-13. If no packets are shown the sender has not sent any weather packets the latest 10 day(s).
| Time | Temp. | Humidity | Pressure | Rain* | Wind** | Luminosity | Snow |
|---|---|---|---|---|---|---|---|
| 1787431962 | 33.89° C | 52% | 1049.9 hPa | 0 mm | - | 509 W/m² | - |
| 1787431661 | 34.44° C | 50% | 1049.8 hPa | 0 mm | - | 142 W/m² | - |
| 1787431357 | 35° C | 51% | 1050 hPa | 0 mm | - | 220 W/m² | - |
| 1787431053 | 34.44° C | 50% | 1050 hPa | 0 mm | - | 571 W/m² | - |
| 1787430749 | 33.89° C | 50% | 1050 hPa | 0 mm | - | 575 W/m² | - |
| 1787430445 | 33.89° C | 49% | 1050.2 hPa | 0 mm | - | 580 W/m² | - |
| 1787430142 | 33.89° C | 52% | 1050.2 hPa | 0 mm | - | 366 W/m² | - |
| 1787429837 | 33.89° C | 50% | 1050.5 hPa | 0 mm | - | 273 W/m² | - |
| 1787429536 | 33.33° C | 50% | 1050.3 hPa | 0 mm | - | 571 W/m² | - |
| 1787429233 | 33.89° C | 52% | 1050.5 hPa | 0 mm | - | 173 W/m² | - |
| 1787428928 | 33.89° C | 51% | 1050.5 hPa | 0 mm | - | 625 W/m² | - |
| 1787428624 | 33.89° C | 51% | 1050.5 hPa | 0 mm | - | 631 W/m² | - |
| 1787428319 | 33.89° C | 51% | 1050.7 hPa | 0 mm | - | 643 W/m² | - |
| 1787428013 | 33.89° C | 51% | 1050.8 hPa | 0 mm | - | 652 W/m² | - |
| 1787427708 | 33.89° C | 50% | 1050.9 hPa | 0 mm | - | 632 W/m² | - |
| 1787427404 | 33.89° C | 48% | 1050.8 hPa | 0 mm | - | 663 W/m² | - |
| 1787427100 | 33.89° C | 48% | 1051 hPa | 0 mm | - | 648 W/m² | - |
| 1787426796 | 34.44° C | 52% | 1051 hPa | 0 mm | - | 689 W/m² | - |
| 1787426496 | 34.44° C | 49% | 1050.9 hPa | 0 mm | - | 691 W/m² | - |
| 1787426193 | 33.89° C | 51% | 1050.9 hPa | 0 mm | - | 702 W/m² | - |
| 1787425889 | 33.89° C | 52% | 1050.9 hPa | 0 mm | - | 710 W/m² | - |
| 1787425586 | 33.89° C | 52% | 1051 hPa | 0 mm | - | 714 W/m² | - |
| 1787425281 | 33.33° C | 49% | 1051.1 hPa | 0 mm | - | 716 W/m² | - |
| 1787424980 | 33.33° C | 49% | 1051.2 hPa | 0 mm | - | 733 W/m² | - |
| 1787424680 | 33.33° C | 49% | 1051.4 hPa | 0 mm | - | 727 W/m² | - |
* Rain latest hour (hover to see other rain measurements)
** Current wind speed in m/s (hover to see current wind gust speed)